TIANWANG 1B (TW-1B)
1 40927U 15051C   19145.38996707  .00007100  00000-0  11234-3 0  9995
2 40927  97.1397 191.0162 0010239 109.5964 306.8886 15.53695459206244
TIANWANG 1A (TW-1A)
1 40928U 15051D   19145.53961520  .00002104  00000-0  53555-4 0  9990
2 40928  97.1467 177.3786 0011703 152.9046   4.1026 15.40632642205459
LAPAN A2
1 40931U 15052B   19145.57385317  .00000801  00000-0  22135-4 0  9995
2 40931   5.9985 228.8387 0016141 172.3878 187.6495 14.76608642197698
LQSAT
1 40958U 15057A   19144.77080113  .00000024  00000-0  11337-4 0  9995
2 40958  97.8987 214.6369 0017468 325.2727  34.7329 14.73078384195133
CHUBUSAT 2
1 41338U 16012B   19144.87296771 +.00000252 +00000-0 +12809-4 0  9998
2 41338 031.0035 302.4954 0013896 217.9887 141.9768 15.00143665179182
CHUBUSAT 3
1 41339U 16012C   19145.44413643  .00000297  00000-0  16285-4 0  9993
2 41339  31.0108 296.9905 0013507 230.9802 128.9642 15.00320511179260
OUFTI-1
1 41458U 16025C   19144.86902501 +.00001065 +00000-0 +57776-4 0  9994
2 41458 098.1008 230.4527 0168134 080.6917 281.3277 15.05747968168835
E-STAR-2
1 41459U 16025D   19145.47781395  .00000885  00000-0  49021-4 0  9992
2 41459  98.1008 230.7704 0169618  79.9485 282.0830 15.05398765168903
AAUSAT 4
1 41460U 16025E   19145.28433034  .00001601  00000-0  83506-4 0  9990
2 41460  98.0941 231.7453 0159407  73.5373 288.3297 15.07257098168993
NUSAT 1
1 41557U 16033B   19145.47328585  .00000906  00000-0  36748-4 0  9994
2 41557  97.4173 233.1151 0014563  30.1725 330.0350 15.27154565166398
BEESAT 4
1 41619U 16040W   19144.87823304 +.00000934 +00000-0 +42534-4 0  9994
2 41619 097.3691 207.5624 0013100 108.7403 251.5256 15.23059037150087
PRATHAM
1 41783U 16059A   19145.52484748  .00000010  00000-0  11158-4 0  9997
2 41783  98.0690 205.6378 0035007  99.8902 260.6254 14.62991629142012
ALSAT 1N
1 41789U 16059G   19145.39743404  .00000082  00000-0  24431-4 0  9992
2 41789  98.0712 207.4533 0029740  90.0487 270.4124 14.64239921142099
NAYIF 1
1 42017U 17008BX  19144.77139782  .00000989  00000-0  41956-4 0  9998
2 42017  97.4043 212.1208 0004601 251.4169 108.6569 15.25455282126124
MAX VALIER SAT
1 42778U 17036P   19145.46571593  .00000632  00000-0  30716-4 0  9997
2 42778  97.3562 203.6634 0011004 315.4305  44.6045 15.21969602106554
